GW2953 Weather Reports


time (UTC)temp
C
wind
direction
speed
KPH
gust
KPH
rain 1hr
cm
rain 24hr
cm
rain mn
cm
humidity
%
barometer
mb
20260506151109 13 56 3.2 4.8 0.00 0.00 0.00 93 1019.9
20260506150606 13 78 1.6 3.2 0.00 0.00 0.00 94 1020.1
20260506145600 13 136 0.0 1.6 0.00 0.00 0.00 95 1020.0
20260506145057 13 131 0.0 3.2 0.00 0.00 0.00 95 1020.0
20260506144554 13 85 1.6 3.2 0.00 0.00 0.00 95 1019.9
20260506144051 13 101 1.6 3.2 0.00 0.00 0.00 95 1020.1
20260506143549 13 63 0.0 3.2 0.00 0.00 0.00 95 1020.0
20260506143047 13 113 0.0 3.2 0.00 0.00 0.00 96 1019.9
20260506142544 13 49 0.0 3.2 0.00 0.00 0.00 96 1019.9
20260506142042 13 77 3.2 3.2 0.00 0.00 0.00 95 1019.8
20260506141539 13 142 0.0 1.6 0.00 0.00 0.00 95 1019.6
20260506141038 13 60 0.0 3.2 0.00 0.00 0.00 95 1019.7
20260506140535 13 67 1.6 3.2 0.00 0.00 0.00 95 1019.6
20260506140032 13 62 3.2 4.8 0.00 0.00 0.00 95 1019.5
20260506135529 13 64 1.6 3.2 0.00 0.00 0.00 95 1019.5
20260506135025 13 50 0.0 3.2 0.00 0.00 0.00 95 1019.4
20260506134521 13 49 0.0 3.2 0.00 0.00 0.00 95 1019.3
20260506134018 13 33 3.2 3.2 0.00 0.00 0.00 95 1019.3
20260506133515 13 341 0.0 3.2 0.00 0.00 0.00 95 1019.3
20260506133012 13 157 0.0 1.6 0.00 0.00 0.00 94 1019.2
20260506132509 13 29 0.0 1.6 0.00 0.00 0.00 94 1019.2
20260506132006 13 129 0.0 3.2 0.00 0.00 0.00 94 1019.2
20260506131503 13 68 3.2 4.8 0.00 0.00 0.00 93 1019.0
20260506130954 12 314 0.0 1.6 0.00 0.00 0.00 93 1019.2
20260506130450 12 299 1.6 4.8 0.00 0.00 0.00 94 1019.0
20260506125948 12 297 0.0 1.6 0.00 0.00 0.00 94 1019.1
20260506125446 12 15 0.0 1.6 0.00 0.00 0.00 94 1018.9
20260506124944 12 349 1.6 3.2 0.00 0.00 0.00 94 1018.9
20260506124441 12 339 0.0 3.2 0.00 0.00 0.00 94 1018.9
20260506123939 12 13 0.0 0.0 0.00 0.00 0.00 94 1018.5
20260506123438 12 7 1.6 3.2 0.00 0.00 0.00 94 1018.8
20260506122934 13 62 0.0 1.6 0.00 0.00 0.00 94 1018.8
20260506122431 12 75 0.0 3.2 0.00 0.00 0.00 94 1018.8
20260506121930 12 48 1.6 3.2 0.00 0.00 0.00 94 1018.8
20260506121426 12 89 1.6 4.8 0.00 0.00 0.00 94 1018.7
20260506120923 12 60 1.6 4.8 0.00 0.00 0.00 94 1018.8
20260506120421 12 20 3.2 6.4 0.00 0.00 0.00 94 1018.7
20260506115918 13 89 1.6 3.2 0.00 0.00 0.00 94 1018.8
20260506115416 13 104 0.0 1.6 0.00 0.00 0.00 93 1018.8
20260506114914 13 55 3.2 4.8 0.00 0.00 0.00 93 1018.7
20260506114411 13 73 0.0 3.2 0.00 0.00 0.00 93 1018.5
20260506113910 13 135 0.0 1.6 0.00 0.00 0.00 93 1018.5
20260506113407 13 306 0.0 3.2 0.00 0.00 0.00 93 1018.5
20260506112903 13 277 1.6 3.2 0.00 0.00 0.00 93 1018.7
20260506112401 13 278 0.0 3.2 0.00 0.00 0.00 93 1018.7
20260506111858 13 331 0.0 1.6 0.00 0.00 0.00 93 1018.3
20260506111356 13 282 1.6 3.2 0.00 0.00 0.00 93 1018.4
20260506110853 13 292 1.6 3.2 0.00 0.00 0.00 93 1018.5
20260506110350 13 56 0.0 3.2 0.00 0.00 0.00 92 1018.5
20260506105847 13 80 3.2 3.2 0.00 0.00 0.00 92 1018.4
20260506105343 13 77 3.2 4.8 0.00 0.00 0.00 92 1018.4
20260506104841 13 41 1.6 4.8 0.00 0.00 0.00 92 1018.4
20260506104339 13 52 0.0 3.2 0.00 0.00 0.00 92 1018.3
20260506103836 13 6 0.0 1.6 0.00 0.00 0.00 92 1018.4
20260506103333 13 352 0.0 1.6 0.00 0.00 0.00 92 1018.2
20260506102831 13 129 0.0 1.6 0.00 0.00 0.00 92 1018.2
20260506102328 13 255 0.0 3.2 0.00 0.00 0.00 91 1018.2
20260506101826 13 268 1.6 4.8 0.00 0.00 0.00 91 1018.3
20260506101321 13 273 3.2 4.8 0.00 0.00 0.00 92 1018.3
20260506100820 13 315 0.0 3.2 0.00 0.00 0.00 92 1018.1
20260506100318 13 22 0.0 1.6 0.00 0.00 0.00 92 1018.2
20260506095816 13 343 0.0 3.2 0.00 0.00 0.00 92 1018.2
20260506095313 13 50 0.0 0.0 0.00 0.00 0.00 92 1018.2
20260506094809 13 50 0.0 1.6 0.00 0.00 0.00 92 1018.1
20260506094308 13 40 1.6 1.6 0.00 0.00 0.00 92 1018.1
20260506093806 13 66 0.0 1.6 0.00 0.00 0.00 91 1018.3
20260506093302 13 59 1.6 3.2 0.00 0.00 0.00 91 1018.3
20260506092801 13 35 3.2 3.2 0.00 0.00 0.00 91 1018.1
20260506092258 13 46 3.2 4.8 0.00 0.00 0.00 91 1018.3
20260506091755 13 33 1.6 3.2 0.00 0.00 0.00 91 1018.1
20260506091253 13 37 0.0 1.6 0.00 0.00 0.00 91 1018.1
20260506090750 13 37 0.0 1.6 0.00 0.00 0.00 91 1018.2
20260506090247 13 319 0.0 4.8 0.00 0.00 0.00 91 1018.0
20260506085744 13 330 0.0 1.6 0.00 0.00 0.00 91 1018.2
20260506085240 13 49 0.0 3.2 0.00 0.00 0.00 90 1018.3
20260506084737 13 43 3.2 4.8 0.00 0.00 0.00 90 1018.3
20260506084233 13 44 3.2 4.8 0.00 0.00 0.00 89 1018.3
20260506083730 13 39 3.2 4.8 0.00 0.00 0.00 89 1018.3
20260506083228 13 31 3.2 3.2 0.00 0.00 0.00 88 1018.3
20260506082725 13 104 0.0 1.6 0.00 0.00 0.00 88 1018.2
20260506082220 13 89 1.6 3.2 0.00 0.00 0.00 87 1018.3
20260506081718 13 227 0.0 4.8 0.00 0.00 0.00 87 1018.3
20260506081215 13 242 3.2 6.4 0.00 0.00 0.00 87 1018.3
20260506080714 13 266 3.2 6.4 0.00 0.00 0.00 88 1018.3
20260506080210 13 193 3.2 8.0 0.00 0.00 0.00 87 1018.1
20260506073154 13 174 1.6 4.8 0.00 0.00 0.00 87 1017.9
20260506072650 13 147 1.6 3.2 0.00 0.00 0.00 88 1017.9
20260506072148 13 145 4.8 9.7 0.00 0.00 0.00 86 1017.8
20260506071646 13 195 3.2 9.7 0.00 0.00 0.00 86 1017.7
20260506071143 13 216 4.8 4.8 0.00 0.00 0.00 87 1017.9
20260506070640 13 171 6.4 8.0 0.00 0.00 0.00 87 1017.6
20260506070137 13 201 3.2 6.4 0.00 0.00 0.00 87 1017.6
20260506062114 13 206 1.6 6.4 0.00 0.00 0.00 87 1017.5
20260506061610 13 211 1.6 4.8 0.00 0.00 0.00 87 1017.5
20260506061108 13 215 9.7 9.7 0.00 0.00 0.00 87 1017.5
20260506060606 13 245 3.2 8.0 0.00 0.00 0.00 87 1017.3
20260506051035 14 175 3.2 4.8 0.00 0.00 0.00 87 1017.1
20260506050532 14 160 4.8 8.0 0.00 0.00 0.00 86 1016.9
20260506045017 14 274 3.2 4.8 0.00 0.00 0.00 86 1016.5
20260506044515 14 225 8.0 8.0 0.00 0.00 0.00 86 1016.5
20260506044012 14 252 4.8 6.4 0.00 0.00 0.00 86 1016.4
20260506043509 14 269 3.2 4.8 0.00 0.00 0.00 87 1016.4
20260506043007 14 241 8.0 14.5 0.00 0.00 0.00 86 1016.2
20260506042506 14 228 4.8 11.3 0.00 0.00 0.00 87 1016.2
20260506042004 14 223 11.3 12.9 0.00 0.00 0.00 87 1016.3
20260506041502 14 268 6.4 12.9 0.00 0.00 0.00 87 1016.2
20260506040959 14 230 16.1 17.7 0.00 0.00 0.00 86 1016.1
20260506040456 14 222 14.5 16.1 0.00 0.00 0.00 86 1015.9
20260506035952 14 295 4.8 12.9 0.00 0.00 0.00 86 1015.8
20260506035450 14 228 14.5 17.7 0.00 0.00 0.00 86 1015.9
20260506034946 14 226 19.3 22.5 0.00 0.00 0.00 86 1015.5
20260506034443 14 256 8.0 17.7 0.00 0.00 0.00 85 1015.4
20260506033940 14 220 4.8 12.9 0.00 0.00 0.00 85 1015.3
20260506033438 14 229 4.8 14.5 0.00 0.00 0.00 86 1015.3
20260506032934 14 242 9.7 16.1 0.00 0.00 0.00 85 1015.1
20260506032431 14 268 9.7 17.7 0.00 0.00 0.00 85 1015.0
20260506031928 15 206 12.9 14.5 0.00 0.00 0.00 85 1015.0
20260506031425 15 237 6.4 19.3 0.00 0.00 0.00 85 1015.0
20260506030923 15 216 4.8 17.7 0.00 0.00 0.00 85 1014.9
20260506030421 15 191 11.3 17.7 0.00 0.00 0.00 84 1014.7
20260506025917 15 269 6.4 16.1 0.00 0.00 0.00 84 1014.5
20260506025414 15 251 12.9 14.5 0.00 0.00 0.00 84 1014.5
20260506024911 15 201 6.4 14.5 0.00 0.00 0.00 84 1014.8
20260506024408 15 253 8.0 17.7 0.00 0.00 0.00 84 1014.5
20260506023904 15 195 6.4 14.5 0.00 0.00 0.00 84 1014.3
20260506023401 15 193 8.0 12.9 0.00 0.00 0.00 84 1014.4
20260506022858 15 252 3.2 12.9 0.00 0.00 0.00 83 1014.1
20260506022356 15 171 4.8 16.1 0.00 0.00 0.00 84 1014.2
20260506021853 15 268 9.7 11.3 0.00 0.00 0.00 83 1014.1
20260506021349 15 210 11.3 14.5 0.00 0.00 0.00 83 1014.0
20260506020846 15 267 6.4 17.7 0.00 0.00 0.00 83 1014.0
20260506020345 15 265 12.9 17.7 0.00 0.00 0.00 82 1013.7
20260506015841 15 224 17.7 17.7 0.00 0.00 0.00 83 1013.9
20260506015339 15 226 12.9 14.5 0.00 0.00 0.00 83 1013.8
20260506014835 15 212 8.0 17.7 0.00 0.00 0.00 82 1013.7
20260506014332 15 221 4.8 14.5 0.00 0.00 0.00 83 1013.7
20260506013829 15 259 11.3 14.5 0.00 0.00 0.00 82 1013.7
20260506013326 15 313 3.2 16.1 0.00 0.00 0.00 82 1013.7
20260506012822 15 268 11.3 17.7 0.00 0.00 0.00 82 1013.5
20260506012320 15 281 11.3 19.3 0.00 0.00 0.00 82 1013.4
20260506011817 15 185 4.8 16.1 0.00 0.00 0.00 83 1013.4
20260506011313 15 272 12.9 20.9 0.00 0.00 0.00 82 1013.5
20260506010811 15 229 8.0 14.5 0.00 0.00 0.00 81 1013.3
20260506010309 15 265 12.9 20.9 0.00 0.00 0.00 82 1013.3
20260506005806 15 190 17.7 22.5 0.00 0.00 0.00 82 1013.1
20260506005305 15 258 9.7 14.5 0.00 0.00 0.00 82 1013.2
20260506004758 16 188 12.9 17.7 0.00 0.00 0.00 81 1013.2
20260506004256 16 285 8.0 19.3 0.00 0.00 0.00 81 1013.1
20260506003752 16 201 8.0 17.7 0.00 0.00 0.00 81 1013.0
20260506003249 16 192 8.0 16.1 0.00 0.00 0.00 80 1013.1
20260506002745 16 219 9.7 17.7 0.00 0.00 0.00 80 1013.0
20260506002241 16 191 8.0 20.9 0.00 0.00 0.00 80 1013.0
20260506001737 16 138 6.4 17.7 0.00 0.00 0.00 79 1013.1
20260506001235 17 193 9.7 22.5 0.00 0.00 0.00 77 1012.9
20260506000731 16 202 16.1 17.7 0.00 0.00 0.00 79 1013.0
20260506000229 16 137 4.8 19.3 0.00 0.00 0.00 79 1012.9
20260505235726 16 193 8.0 20.9 0.00 0.00 0.00 78 1012.8
20260505235224 16 265 16.1 27.4 0.00 0.00 0.00 78 1012.6
20260505234720 17 169 12.9 20.9 0.00 0.00 0.00 78 1012.9
20260505234218 17 190 3.2 24.1 0.00 0.00 0.00 78 1013.0
20260505233714 17 216 6.4 17.7 0.00 0.00 0.00 78 1012.9
20260505233212 17 181 9.7 19.3 0.00 0.00 0.00 77 1012.9
20260505232709 17 263 4.8 14.5 0.00 0.00 0.00 78 1012.9
20260505232206 17 177 14.5 17.7 0.00 0.00 0.00 77 1012.9
20260505231703 17 165 8.0 14.5 0.00 0.00 0.00 78 1012.9
20260505231202 17 186 8.0 25.7 0.00 0.00 0.00 79 1012.8
20260505230700 17 175 6.4 25.7 0.00 0.00 0.00 78 1013.1
20260505230157 17 184 9.7 17.7 0.00 0.00 0.00 78 1013.0
20260505225653 17 176 4.8 20.9 0.00 0.00 0.00 78 1012.9
20260505225149 17 208 9.7 22.5 0.00 0.00 0.00 78 1013.0
20260505224645 17 126 4.8 19.3 0.00 0.00 0.00 78 1012.9
20260505224144 17 194 20.9 20.9 0.00 0.00 0.00 77 1013.0
20260505223641 17 205 8.0 22.5 0.00 0.00 0.00 78 1013.1
20260505223136 17 182 14.5 24.1 0.00 0.00 0.00 78 1013.1
20260505222633 17 185 8.0 19.3 0.00 0.00 0.00 77 1013.1
20260505222129 17 186 16.1 17.7 0.00 0.00 0.00 77 1013.1
20260505221626 17 181 8.0 19.3 0.00 0.00 0.00 77 1013.1
20260505221123 17 172 9.7 22.5 0.00 0.00 0.00 78 1012.9
20260505220620 17 195 14.5 20.9 0.00 0.00 0.00 77 1013.0
20260505220118 17 184 8.0 20.9 0.00 0.00 0.00 77 1013.2
20260505215615 17 183 12.9 20.9 0.00 0.00 0.00 77 1013.2
20260505215113 17 201 6.4 20.9 0.00 0.00 0.00 77 1013.3
20260505214611 17 216 9.7 20.9 0.00 0.00 0.00 77 1013.2
20260505214108 17 185 11.3 17.7 0.00 0.00 0.00 79 1013.3
20260505213606 16 212 9.7 17.7 0.00 0.00 0.00 78 1013.2
20260505213102 17 218 4.8 19.3 0.00 0.00 0.00 77 1013.4
20260505212558 17 223 14.5 19.3 0.00 0.00 0.00 76 1013.3
20260505212056 17 194 12.9 19.3 0.00 0.00 0.00 78 1013.4
20260505211552 17 199 6.4 17.7 0.00 0.00 0.00 76 1013.2
20260505211049 17 181 11.3 17.7 0.00 0.00 0.00 76 1013.3
20260505210546 17 189 8.0 17.7 0.00 0.00 0.00 75 1013.2
20260505210043 17 201 6.4 17.7 0.00 0.00 0.00 76 1013.2
20260505205541 17 173 9.7 19.3 0.00 0.00 0.00 76 1013.3
20260505205038 17 181 17.7 20.9 0.00 0.00 0.00 76 1013.4
20260505204536 17 166 14.5 17.7 0.00 0.00 0.00 77 1013.3
20260505204033 17 170 11.3 14.5 0.00 0.00 0.00 76 1013.2
20260505203529 17 216 8.0 14.5 0.00 0.00 0.00 75 1013.4
20260505203026 17 217 11.3 16.1 0.00 0.00 0.00 75 1013.4
20260505202522 17 280 6.4 16.1 0.00 0.00 0.00 76 1013.3
20260505202018 17 169 8.0 16.1 0.00 0.00 0.00 78 1013.4
20260505201516 16 169 6.4 16.1 0.00 0.00 0.00 78 1013.5
20260505201013 16 186 8.0 17.7 0.00 0.00 0.00 79 1013.5
20260505200511 16 180 9.7 19.3 0.00 0.00 0.00 79 1013.7
20260505200008 16 172 4.8 16.1 0.00 0.00 0.00 80 1013.5
20260505195504 16 197 9.7 17.7 0.00 0.00 0.00 79 1013.7
20260505195001 16 168 6.4 16.1 0.00 0.00 0.00 80 1013.7
20260505194459 16 178 11.3 17.7 0.00 0.00 0.00 78 1013.6
20260505193958 16 192 9.7 16.1 0.00 0.00 0.00 79 1013.5
20260505193456 16 213 11.3 16.1 0.00 0.00 0.00 78 1013.6
20260505192953 16 221 3.2 12.9 0.00 0.00 0.00 78 1013.7
20260505192452 16 172 9.7 14.5 0.00 0.00 0.00 77 1013.5
20260505191949 16 178 9.7 11.3 0.00 0.00 0.00 78 1013.7
20260505191447 16 174 8.0 14.5 0.00 0.00 0.00 77 1013.8
20260505190944 16 196 3.2 17.7 0.00 0.00 0.00 77 1013.6
20260505190439 16 167 12.9 16.1 0.00 0.00 0.00 77 1013.6
20260505185935 16 173 11.3 14.5 0.00 0.00 0.00 76 1013.6
20260505185433 16 176 6.4 12.9 0.00 0.00 0.00 76 1013.5
20260505184928 16 274 6.4 11.3 0.00 0.00 0.00 76 1013.6
20260505184426 16 180 6.4 12.9 0.00 0.00 0.00 77 1013.7
20260505183922 16 159 4.8 9.7 0.00 0.00 0.00 78 1013.6
20260505183419 15 179 6.4 14.5 0.00 0.00 0.00 77 1013.7
20260505182916 15 162 6.4 12.9 0.00 0.00 0.00 78 1013.6
20260505182412 15 180 11.3 14.5 0.00 0.00 0.00 77 1013.7
20260505181909 15 163 8.0 20.9 0.00 0.00 0.00 79 1013.7
20260505181406 15 159 8.0 17.7 0.00 0.00 0.00 78 1013.6
20260505180903 15 189 3.2 17.7 0.00 0.00 0.00 77 1013.7
20260505180400 15 176 8.0 14.5 0.00 0.00 0.00 77 1013.8
20260505175856 15 197 3.2 14.5 0.00 0.00 0.00 75 1013.8
20260505175353 15 165 8.0 14.5 0.00 0.00 0.00 79 1013.8
20260505174849 15 173 6.4 12.9 0.00 0.00 0.00 79 1013.8
20260505174347 15 165 4.8 12.9 0.00 0.00 0.00 81 1013.6
20260505173842 14 154 6.4 11.3 0.00 0.00 0.00 79 1013.7
20260505173339 14 184 6.4 12.9 0.00 0.00 0.00 82 1013.8
20260505172836 14 152 3.2 11.3 0.00 0.00 0.00 84 1013.7
20260505172334 14 153 6.4 8.0 0.00 0.00 0.00 81 1013.5
20260505171833 14 157 6.4 11.3 0.00 0.00 0.00 82 1013.5
20260505171331 14 184 3.2 8.0 0.00 0.00 0.00 82 1013.8
20260505170827 13 175 6.4 9.7 0.00 0.00 0.00 81 1013.6
20260505170324 13 100 4.8 8.0 0.00 0.00 0.00 83 1013.7
20260505165819 14 151 4.8 8.0 0.00 0.00 0.00 82 1013.8
20260505165315 13 169 4.8 9.7 0.00 0.00 0.00 80 1013.7
20260505164810 13 155 3.2 4.8 0.00 0.00 0.00 81 1013.8
20260505164308 13 92 4.8 8.0 0.00 0.00 0.00 84 1013.6
20260505163806 13 75 4.8 11.3 0.00 0.00 0.00 83 1013.9
20260505163304 13 173 4.8 8.0 0.00 0.00 0.00 82 1013.8
20260505162802 13 89 0.0 4.8 0.00 0.00 0.00 83 1013.8
20260505162258 13 102 4.8 8.0 0.00 0.00 0.00 84 1013.8
20260505161755 13 141 1.6 8.0 0.00 0.00 0.00 86 1013.7
20260505161253 13 114 4.8 8.0 0.00 0.00 0.00 87 1013.8
20260505160750 12 23 3.2 4.8 0.00 0.00 0.00 88 1013.7
20260505160248 12 140 3.2 6.4 0.00 0.00 0.00 88 1013.9
20260505153227 11 100 3.2 6.4 0.00 0.00 0.00 92 1013.6
20260505152724 11 180 3.2 6.4 0.00 0.00 0.00 93 1013.6
20260505152220 11 123 1.6 6.4 0.00 0.00 0.00 95 1013.7
20260505151715 11 142 4.8 4.8 0.00 0.00 0.00 95 1013.8